EHI
0 0 0 0 0 0 0 0 0 0 0 0 0 0 0 0 0 0 0 0 0 0 0 0 0 0 0 0 0 0 0 0 0 0 0 0 0 0 0 0 0 0 0
0 0 0 0 0 0 0 0 0 0 0 0 0 0 0 0 0 0 0 0 0 0 0 0 0 0 0 0 0 0 0 0 0 0 0 0 0 0 0 0 0 0 0
0 0 0 0 0 0 0 0 0 0 0 0 0 0 0 0 0 0 0 0 0 0 0 0 0 0 0 0 0 0 0 0 0 0 0 0 0 0 0 0 0 0 0
0 0 0 0 0 0 0 0 0 0 0 0 0 0 0 0 0 0 0 0 0 0 0 0 0 0 0 0 0 0 0 0 0 0 0 0 0 0 0 0 0 0 0
0 0 0 0 0 0 0 0 0 0 0 0 0 0 0 0 0 0 0 0 0 0 0 0 0 0 0 0 0 0 0 0 0 0 0 0 0 0 0 0 0 0 0
0 0 0 0 0 0 0 0 0 0 0 0 0 0 0 0 0 0 0 0 0 0 0 0 0 0 0 0 0 0 0 0 0 0 0 0 0 0 0 0 0 0 0
0 0 0 0 0 0 0 0 0 0 0 0 0 0 0 0 0 0 0 0 0 0 0 0 0 0 0 0 0 0 0 0 0 0 0 0 0 0 0 0 0 0 0
0 0 0 0 0 0 0 0 0 0 0 0 0 0 0 0 0 0 0 0 0 0 0 0 0 0 0 0 0 0 0 0 0 0 0 0 0 0 0 0 0 0 0
0 0 0 0 0 0 0 0 0 0 0 0 0 0 0 0 0 0 0 0 0 0 0 0 0 0 0 0 0 0 0 0 0 0 0 0 0 0 0 0 0 0 0
0 0 0 0 0 0 0 0 0 0 0 0 0 0 0 0 0 0 0 0 0 0 0 0 0 0 0 0 0 0 0 0 0 0 0 0 0 0 0 0 0 0 0
0 0 0 0 0 0 0 0 0 0 0 0 0 0 0 0 0 0 0 0 0 0 0 0 0 0 0 0 0 0 0 0 0 0 0 0 0 0 0 0 0 0 0
0 0 0 0 0 0 0 0 0 0 0 0 0 0 0 0 0 0 0 0 0 0 0 0 0 0 0 0 0 0 0 0 0 0 0 0 0 0 0 0 0 0 0
0 0 0 0 0 0 0 0 0 0 0 0 0 0 0 0 0 0 0 0 0 0 0 0 0 0 0 0 0 0 0 0 0 0 0 0 0 0 0 0 0 0 0
0 0 0 0 0 0 0 0 0 0 0 0 0 0 0 0 0 0 0 0 0 0 0 0 0 0 0 0 0 0 0 0 0 0 0 0 0 0 0 0 0 0 0
0 0 0 0 0 0 0 0 0 0 0 0 0 0 0 0 0 0 0 0 0 0 0 0 0 0 0 0 0 0 0 0 0 0 0 0 0 0 0 0 0 0 0
0 0 0 0 0 0 0 0 0 0 0 0 0 0 0 0 0 0 0 0 0 0 0 0 0 0 0 0 0 0 0 0 0 0 0 0 0 0 0 0 0 0 0
0 0 0 0 0 0 0 0 0 0 0 0 0 0 0 0 0 0 0 0 0 0 0 0 0 0 0 0 0 0 0 0 0 0 0 0 0 0 0 0 0 0 0
0 0 0 0 0 0 0 0 0 0 0 0 0 0 0 0 0 0 0 0 0 0 0 0 0 0 0 0 0 0 0 0 0 0 0 0 0 0 0 0 0 0 0
0 0 0 0 0 0 0 0 0 0 0 0 0 0 0 0 0 0 0 0 0 0 0 0 0 0 0 0 0 0 0 0 0 0 0 0 0 0 0 0 0 0 0
0 0 0 0 0 0 0 0 0 0 0 0 0 0 0 0 0 0 0 0 0 0 0 0 0 0 0 0 0 0 0 0 0 0 0 0 0 0 0 0 0 0 0
0 0 0 0 0 0 0 0 0 0 0 0 0 0 0 0 0 0 0 0 0 0 0 0 0 0 0 0 0 0 0 0 0 0 0 0 0 0 0 0 0 0 0
0 0 0 0 0 0 0 0 0 0 0 0 0 0 0 0 0 0 0 0 0 0 0 0 0 0 0 0 0 0 0 0 0 0 0 0 0 0 0 0 0 0 0
0 0 0 0 0 0 0 0 0 0 0 0 0 0 0 0 0 0 0 0 0 0 0 0 0 0 0 0 0 0 0 0 0 0 0 0 0 0 0 0 0 0 0
0 0 0 0 0 0 0 0 0 0 0 0 0 0 0 0 0 0 0 0 0 0 0 0 0 0 0 0 0 0 0 0 0 0 0 0 0 0 0 0 0 0 0
0 0 0 0 0 0 0 0 0 0 0 0 0 0 0 0 0 0 0 0 0 0 0 0 0 0 0 0 0 0 0 0 0 0 0 0 0 0 0 0 0 0 0
0 0 0 0 0 0 0 0 0 0 0 0 0 0 0 0 0 0 0 0 0 0 0 0 0 0 0 0 0 0 0 0 0 0 0 0 0 0 0 0 0 0 0
Wind_Speed
4 4 5 5 5 4 4 5 5 5 6 7 7 7 8 8 8 6 5 4 3 2 2 1 3 3 3 3 4 5 5 5 5 3 2 3 4 5 5 5 5 5 6
3 3 4 4 4 4 5 5 5 5 6 6 6 7 7 7 7 7 7 6 4 3 3 2 2 1 3 3 4 5 5 5 4 4 3 3 4 5 6 6 5 5 5
2 3 4 4 4 4 5 5 5 5 6 6 6 7 7 7 7 6 6 5 4 4 3 2 2 1 2 2 3 4 4 5 4 4 4 3 3 4 5 5 6 5 5
1 2 3 4 4 4 4 4 5 5 5 6 6 6 6 6 6 6 5 5 5 4 3 2 2 2 2 3 3 4 4 5 5 5 4 4 4 4 6 6 6 5 5
1 2 3 3 3 4 4 4 5 5 5 5 5 6 6 6 6 7 5 5 4 4 4 3 3 3 3 2 2 3 4 4 5 5 4 4 5 6 6 5 7 7 5
2 2 3 3 3 4 4 4 4 5 5 5 5 5 6 6 12 12 7 4 4 4 4 4 4 4 4 3 2 3 5 5 5 5 4 5 6 6 6 7 8 7 5
3 2 2 2 3 4 4 4 4 4 4 5 5 5 6 8 13 13 11 5 4 4 4 4 3 3 4 3 3 1 1 4 5 4 5 5 6 8 9 9 8 6 5
2 3 3 2 3 4 4 4 4 3 4 4 4 5 5 7 13 13 11 5 4 4 4 3 3 3 3 2 2 2 1 0 2 3 4 4 5 7 8 8 9 9 8
3 4 3 3 3 4 4 4 3 3 4 3 3 4 5 7 12 13 9 3 3 4 4 3 3 3 5 3 2 2 2 1 1 3 4 5 8 11 11 9 10 10 7
5 5 4 3 3 4 4 4 3 3 3 4 3 3 4 5 11 12 10 2 3 4 4 4 5 4 4 3 2 1 2 1 2 3 4 6 7 10 13 10 10 10 8
5 4 4 4 4 4 3 2 3 3 3 3 4 4 4 5 9 11 11 3 2 3 3 3 3 5 4 4 3 2 2 2 3 4 4 4 5 5 6 5 5 8 8
4 4 5 4 4 3 3 3 2 2 3 3 4 4 4 4 6 8 10 8 5 2 2 3 3 5 5 5 3 4 5 4 3 3 4 4 4 4 5 6 7 6 5
5 6 5 5 4 3 3 3 2 1 1 2 2 3 4 4 5 9 10 9 8 3 2 4 3 5 5 4 6 6 5 3 3 4 4 3 3 5 6 7 9 10 10
7 7 5 5 5 4 3 3 3 2 2 2 2 3 3 3 3 4 4 4 5 4 3 3 4 5 4 4 4 4 4 3 3 4 4 3 3 4 5 6 7 7 7
7 6 6 5 5 5 4 4 5 5 5 4 3 2 2 3 4 8 5 4 3 2 2 2 2 2 2 2 3 3 3 3 4 3 4 5 5 6 5 5 5 4 5
7 7 6 5 4 4 4 4 7 8 9 10 9 7 5 7 8 8 8 7 6 2 1 1 1 1 1 2 2 2 3 3 3 4 4 4 5 5 5 4 4 5 6
9 8 5 5 5 5 4 4 5 5 7 10 11 11 10 8 7 6 6 5 4 2 1 0 0 0 0 1 1 2 2 2 2 3 4 4 4 5 5 5 5 5 5
10 10 8 6 6 6 6 5 5 4 4 4 5 9 11 10 7 6 4 2 1 2 1 1 1 1 1 1 1 1 2 2 2 3 4 3 4 4 4 4 4 5 5
9 7 7 6 6 6 5 5 5 5 5 4 3 4 7 7 6 5 3 2 2 2 2 2 2 2 1 1 2 2 2 3 3 3 3 4 3 4 4 4 4 6 4
8 13 11 7 6 6 6 6 6 6 6 5 5 5 3 3 3 3 3 3 3 3 3 3 3 3 2 2 2 3 3 3 4 3 3 3 3 4 5 5 5 5 3
7 8 12 8 7 7 7 7 7 7 6 6 7 7 9 6 6 6 5 5 5 5 5 4 4 3 3 3 3 4 4 3 4 4 4 4 4 3 3 4 4 4 4
6 6 6 8 8 8 8 8 7 7 8 8 6 5 11 6 6 6 6 6 6 5 5 5 4 4 4 4 5 5 5 4 4 4 4 4 4 4 4 4 4 4 4
7 7 7 7 7 9 9 7 7 8 8 8 7 6 6 7 7 7 7 7 6 6 5 5 5 5 4 4 4 5 6 6 6 6 6 6 5 5 4 4 5 5 5
8 8 8 7 7 7 8 8 8 9 9 8 8 7 7 8 8 9 8 7 6 6 6 6 7 8 9 6 5 5 5 5 6 6 8 7 7 6 5 4 5 5 5
9 9 8 8 7 8 8 9 9 9 9 9 8 8 8 8 8 8 8 7 8 8 9 9 7 8 10 11 9 7 9 11 9 7 6 6 7 7 6 6 5 4 5
11 10 9 7 7 7 8 8 9 9 9 9 9 8 8 9 9 9 8 8 8 8 9 8 10 11 12 11 12 13 14 13 13 12 8 6 7 7 7 6 7 5 6
Wind_Direction
328 332 339 341 345 353 358 354 350 350 353 356 354 355 355 356 354 356 353 348 341 334 327 246 222 197 203 204 200 194 195 190 205 191 169 164 174 182 170 173 174 171 171
314 327 332 338 347 353 350 345 347 349 350 351 351 353 353 353 352 355 354 355 351 351 341 319 271 214 213 209 207 201 198 193 191 190 174 168 177 177 163 163 165 165 158
309 329 332 339 344 342 338 338 344 347 348 351 353 351 346 344 345 347 347 347 347 343 338 331 326 307 249 223 214 203 194 194 187 179 175 162 153 152 148 146 142 135 143
283 316 319 322 325 325 328 335 341 344 346 347 345 342 339 335 339 343 345 346 345 343 341 336 324 301 273 249 222 208 193 192 187 178 171 164 151 148 151 147 141 130 127
241 285 296 309 319 327 332 333 337 343 345 339 341 344 343 341 346 347 342 345 345 344 346 347 328 317 292 258 229 204 191 190 180 179 173 167 161 159 163 150 142 128 113
226 262 288 312 325 329 327 328 334 337 337 340 343 341 344 346 345 356 0 350 346 347 342 340 335 347 351 345 296 222 198 186 181 176 176 177 168 158 151 149 143 140 133
228 259 282 298 311 318 323 329 328 327 330 331 332 337 336 334 347 357 1 2 351 347 340 337 344 357 1 356 6 13 207 195 190 177 177 179 169 163 157 156 153 141 128
234 261 273 282 297 311 319 319 317 314 320 320 324 332 333 339 350 351 358 3 352 348 341 337 339 338 340 354 21 45 43 131 191 182 181 177 166 161 159 149 136 117 104
240 252 258 260 281 301 308 310 310 313 319 319 320 334 340 336 345 348 2 349 350 351 346 346 343 337 341 7 43 65 63 47 86 149 157 159 159 154 147 138 140 140 132
236 239 245 246 259 276 288 296 300 306 309 316 325 339 341 333 342 351 2 352 351 346 345 350 355 355 1 23 42 60 73 62 103 113 122 135 146 153 155 156 154 150 137
229 232 241 245 252 260 279 288 305 319 331 336 331 329 334 337 342 353 360 1 348 344 344 341 341 360 24 36 44 52 75 98 110 117 122 125 131 141 144 138 143 150 144
217 229 241 246 252 255 264 289 311 333 338 338 335 330 329 332 339 347 359 6 5 344 329 325 331 8 35 43 49 66 74 85 99 106 111 115 120 125 124 118 105 90 86
214 231 240 247 247 246 245 266 288 306 317 318 326 324 321 325 333 352 360 0 360 352 321 329 3 39 42 43 56 64 61 69 88 99 99 91 88 106 114 107 95 91 87
219 232 235 239 248 243 233 230 234 249 259 280 298 307 312 318 326 337 340 343 347 352 346 354 29 54 54 46 50 49 49 62 84 93 93 86 89 101 109 111 114 112 101
225 232 233 231 235 238 235 227 224 226 209 214 229 235 264 300 301 322 330 326 322 312 337 7 16 31 42 44 50 52 53 60 73 75 89 94 95 97 99 100 109 104 109
225 231 228 225 227 227 236 259 239 232 239 232 224 217 233 247 281 312 328 337 339 345 74 41 17 34 61 65 68 61 56 65 73 87 90 95 102 105 101 93 96 108 118
221 226 220 217 218 220 218 227 257 265 246 244 240 234 234 248 270 298 318 335 3 69 89 100 262 282 88 93 83 80 83 81 89 98 101 101 103 103 105 106 105 107 112
224 228 220 216 214 215 216 216 218 231 258 267 250 239 237 239 249 269 294 328 6 43 133 193 221 230 209 164 143 124 118 115 108 110 110 110 112 112 112 118 122 126 127
224 225 222 216 211 211 212 211 213 219 228 242 257 262 237 229 233 245 226 197 218 226 215 213 215 213 208 191 174 159 150 145 139 132 131 133 132 122 123 127 128 133 126
235 232 219 213 210 208 207 208 214 218 224 229 235 235 203 181 210 222 207 206 211 218 218 215 213 210 202 191 179 167 157 154 151 146 148 148 147 143 146 149 152 153 153
249 242 229 216 213 212 210 212 214 214 219 225 234 225 192 195 213 213 209 208 209 212 211 212 210 206 201 189 179 177 175 173 169 163 159 158 155 153 153 154 158 157 148
266 248 230 223 219 216 215 213 210 212 218 225 234 230 210 205 213 213 214 216 213 209 202 198 204 205 198 192 185 180 180 181 178 172 167 163 160 156 151 152 156 158 160
282 265 248 236 227 223 220 216 213 215 219 222 223 217 203 209 217 218 219 217 211 208 201 196 201 205 204 199 192 186 187 192 186 176 170 168 167 167 162 165 167 164 177
299 279 263 250 237 229 224 221 219 218 219 220 220 217 213 212 215 218 218 212 207 207 201 199 203 206 203 198 197 196 198 192 178 179 177 174 174 171 168 170 175 180 183
319 303 284 265 249 239 234 230 225 221 220 219 219 218 215 212 214 217 215 209 205 207 207 203 205 207 207 203 198 199 201 197 187 177 174 175 177 176 174 175 174 176 178
333 324 311 294 273 255 244 239 234 228 224 222 219 216 213 212 213 213 210 206 206 209 208 206 207 205 204 204 205 204 202 200 196 187 175 175 179 182 179 182 183 180 180